TIME,DELAY(SENSOR),PRES,OXYGEN,RAWTEMP,T(OPTODE),TCPHASE,FLUOR,BETA(BETA700),BETA(BETA412),BETA(BETA440),CDOM,C(CSC),ED(ED412.40),ED(ED444.00),ED(ED489.70),ED(ED554.30),LU(LU411.80),LU(LU443.40),LU(LU489.60),LU(LU554.10),COMP,TILTX,TILTY,CHECK
1362455879,5806,866.1300048828125000,43.8209304809570300,660.7009887695312000,4.6048908233642580,54.4353408813476560,52,101,86,79,79,14855,2147757952,2147423753,2148011730,2147872091,2147639798,2147054912,2148255753,2147198738,1323,4,14,44528
1362459475,5809,946.0399780273438000,47.8077316284179700,669.8609008789062000,4.3027939796447750,53.9728012084960940,54,101,87,79,80,14859,2147762258,2147424237,2148009993,2147872164,2147641508,2147064932,2148255926,2147195273,319,4,13,26216
1362463075,5807,956.9799804687500000,48.3881416320800800,670.6574096679688000,4.2764778137207030,53.9020309448242200,54,100,85,79,80,14858,2147759972,2147425069,2148008109,2147873572,2147638034,2147059300,2148258651,2147196937,3481,4,13,23052
1362466675,5808,989.1699829101562000,49.2050018310546900,673.4428100585938000,4.1844019889831540,53.8231391906738300,52,99,87,78,80,14858,2147762907,2147424045,2148011136,2147874459,2147641782,2147055387,2148264987,2147194688,3410,4,13,48733
1362470275,5806,996.8300170898438000,48.7837982177734400,672.6887817382812000,4.2093329429626465,53.8731689453125000,53,99,83,78,80,14857,2147760091,2147422820,2148011529,2147875145,2147638829,2147056649,2148262445,2147196361,336,4,13,24783
1362473875,5808,1009.1900024414062000,48.2653083801269500,671.6683959960938000,4.2430691719055180,53.9327201843261700,52,99,85,79,79,14844,2147756836,2147423040,2148012598,2147875520,2147641782,2147054070,2148258285,2147196361,3125,4,13,58423
1362477475,5809,1004.4400024414062000,48.0093383789062500,671.5961914062500000,4.2454547882080080,53.9641304016113300,53,101,87,79,81,14842,2147758235,2147420937,2148009837,2147876452,2147639350,2147057974,2148258075,2147195958,14,4,13,59043
1362481075,5809,1009.1900024414062000,47.6279716491699200,670.5742187500000000,4.2792282104492190,54.0105094909668000,53,100,89,78,80,14841,2147752292,2147424173,2148012160,2147875264,2147640320,2147058304,2148264777,2147194797,3287,4,13,39616
1362484675,5807,1014.9799804687500000,48.0719490051269500,671.6475830078125000,4.2437529563903810,53.9593582153320300,53,98,86,79,80,14844,2147754258,2147423945,2148008713,2147875995,2147643757,2147057664,2148254592,2147194358,3393,4,13,16272
1362488275,5807,1012.2100219726562000,47.4303092956543000,671.0068969726562000,4.2649312019348145,54.0421104431152340,52,105,83,80,81,14839,2147758162,2147424265,2148009755,2147875053,2147638619,2147057728,2148260534,2147196900,3431,4,13,6516
1362491875,5810,1008.2100219726562000,47.8832092285156250,671.4506225585938000,4.2502689361572270,53.9825515747070300,53,99,89,78,80,14842,2147757129,2147425435,2148012818,2147875885,2147640265,2147058432,2148261467,2147194624,3554,4,13,40043
1362495475,5810,1007.9899902343750000,48.2085304260253900,672.1599731445312000,4.2268161773681640,53.9434585571289060,53,99,85,79,80,14841,2147758171,2147423780,2148009234,2147875364,2147639131,2147052160,2148259949,2147195236,185,4,13,21375
1362499075,5810,996.2299804687500000,48.2621498107910160,673.1768798828125000,4.1931967735290530,53.9493217468261700,53,99,84,79,80,14842,2147759323,2147422966,2148009792,2147876288,2147641728,2147054262,2148260790,2147199734,196,4,13,36901
1362502675,5811,1002.3800048828125000,48.1252899169921900,673.2990112304688000,4.1891570091247560,53.9734001159668000,52,99,83,79,81,14844,2147755849,2147419894,2148009700,2147876772,2147642898,2147059145,2148261796,2147196233,3487,4,13,39807
1362506275,5811,1001.6099853515625000,47.7677497863769500,673.9168701171875000,4.1687197685241700,54.0271682739257800,53,100,88,79,80,14840,2147756004,2147422445,2148012589,2147876708,2147644480,2147052937,2148256603,2147197613,3324,4,13,63514
1362509875,5810,1003.7899780273438000,47.9867095947265600,673.6583862304688000,4.1772689819335940,53.9959297180175800,53,97,85,80,81,14843,2147754267,2147421494,2148008612,2147875574,2147643693,2147052864,2148257398,2147196918,446,4,13,13344
1362513475,5812,1005.2399902343750000,48.4317817687988300,674.8557739257812000,4.1376590728759770,53.9449882507324200,53,98,89,78,80,14840,2147757101,2147425828,2148009846,2147873709,2147640749,2147056246,2148262363,2147195529,545,4,13,43247
1362517075,5808,1008.0999755859375000,48.0826492309570300,673.8806762695312000,4.1699161529541020,53.9830207824707000,53,98,86,79,81,14845,2147761161,2147423606,2148011026,2147873810,2147641270,2147056832,2148261348,2147194797,3359,4,13,1701
1362520675,5807,1003.4799804687500000,47.6111412048339840,673.6832275390625000,4.1764488220214840,54.0493812561035160,52,101,87,77,80,14841,2147761069,2147425536,2148010971,2147877385,2147641005,2147058724,2148261467,2147196315,1146,4,13,25710
1362524275,5808,1005.1199951171875000,48.4708099365234400,674.8651123046875000,4.1373500823974610,53.9456100463867200,51,99,87,79,80,14839,2147759314,2147423296,2148011136,2147871680,2147642752,2147060105,2148264978,2147194322,600,4,13,3136
1362527875,5810,1009.9000244140625000,47.9699897766113300,673.6279907226562000,4.1782760620117190,54.0006599426269500,52,98,88,80,80,14842,2147760914,2147423890,2148010130,2147874934,2147642724,2147056045,2148261952,2147195840,3506,4,13,5545
1362531475,5809,1013.9199829101562000,47.8394317626953100,673.7482299804688000,4.1742987632751465,54.0202293395996100,52,101,88,80,80,14841,2147759881,2147425481,2148009673,2147873682,2147640393,2147059145,2148265042,2147193892,3565,4,13,58437
1362535075,5808,1016.1500244140625000,47.8801803588867200,673.0576782226562000,4.1971378326416020,54.0041999816894500,52,97,88,79,81,14841,2147758445,2147426395,2148008155,2147877101,2147643126,2147055451,2148261312,2147196470,3196,4,13,24234
1362538675,5809,1020.7199707031250000,47.9119911193847660,671.6621704101562000,4.2432727813720700,53.9825782775878900,52,98,89,79,81,14841,2147758976,2147425810,2148006610,2147876032,2147644278,2147054902,2148259684,2147196644,3551,4,14,5091
1362542275,5807,1007.1099853515625000,47.5442581176757800,671.9531860351562000,4.2336521148681640,54.0368118286132800,53,102,86,79,81,14840,2147757494,2147425526,2148012982,2147876562,2147640557,2147052242,2148257014,2147197696,2479,4,13,26341
1362545875,5804,1015.2899780273438000,46.8812408447265600,672.9146728515625000,4.2018637657165530,54.1453590393066400,53,99,87,79,80,14844,2147759734,2147424256,2148008749,2147875840,2147640886,2147053824,2148260800,2147196050,75,4,13,39463
1362549475,5809,1013.4799804687500000,47.2486801147460940,673.3168945312500000,4.1885662078857420,54.0947113037109400,53,98,86,79,79,14843,2147756434,2147426505,2148011547,2147875236,2147639113,2147054729,2148256475,2147196233,54,4,13,49723
1362553075,5812,1014.8300170898438000,47.7801589965820300,673.4240722656250000,4.1850190162658690,54.0233612060546900,52,105,86,78,81,14841,2147756077,2147424768,2148011300,2147874889,2147641581,2147055277,2148259867,2147193270,335,4,13,35344
1362556675,5808,1014.7899780273438000,47.1363182067871100,673.4948120117188000,4.1826820373535160,54.1124916076660160,53,107,88,78,80,14843,2147756361,2147424740,2148008987,2147876370,2147638226,2147058432,2148254336,2147195309,109,4,13,29593
1362560275,5809,1014.0499877929688000,47.3540000915527340,673.1591186523438000,4.1937870979309080,54.0826110839843750,53,99,86,79,80,14846,2147755885,2147423250,2148009435,2147876644,2147642002,2147056978,2148257060,2147194349,124,4,13,33636
1362563875,5807,1014.2199707031250000,47.6504287719726560,673.4669189453125000,4.1836051940917970,54.0392189025878900,52,96,88,79,79,14838,2147759826,2147426925,2148012635,2147875968,2147641188,2147055506,2148261001,2147197485,3415,4,13,43021
1362567475,5809,1014.1400146484375000,48.0227813720703100,673.6547851562500000,4.1773872375488280,53.9937095642089840,52,100,88,79,80,14836,2147758985,2147426788,2148012086,2147876818,2147642724,2147053622,2148260562,2147190189,3292,4,13,61194
1362571075,5809,1014.9000244140625000,47.2845916748046900,673.6356201171875000,4.1780261993408200,54.0919609069824200,53,101,85,77,79,14834,2147757686,2147424036,2148009115,2147876818,2147643657,2147059254,2148259410,2147197120,669,4,13,55870
1362574675,5810,1014.7199707031250000,47.2483787536621100,673.7208251953125000,4.1752052307128910,54.1030197143554700,51,96,85,78,80,14835,2147755547,2147421339,2148011318,2147874788,2147642322,2147060873,2148260260,2147196406,382,4,13,28294
1362578275,5808,1012.3499755859375000,47.7264709472656250,673.4918823242188000,4.1827769279479980,54.0300598144531250,52,100,84,78,79,14832,2147756388,2147423670,2148010276,2147877952,2147641179,2147056841,2148256960,2147193206,505,4,13,34249
1362581875,5807,1010.6199951171875000,47.8915596008300800,673.4191284179688000,4.1851859092712400,54.0078201293945300,51,101,88,79,80,14832,2147759597,2147423725,2148009590,2147874422,2147639990,2147056822,2148261714,2147198080,123,4,14,47777
1362585475,5810,1011.7100219726562000,47.8791503906250000,673.2556152343750000,4.1905918121337890,54.0040092468261700,52,97,88,80,80,14832,2147756864,2147421714,2148011236,2147874276,2147640164,2147052123,2148261778,2147193929,29,4,13,26481
1362589075,5809,1017.5599975585938000,47.6657714843750000,673.3148193359375000,4.1886367797851560,54.0344200134277340,52,98,86,79,81,14833,2147756132,2147422061,2148009892,2147878381,2147642496,2147057590,2148259584,2147198089,72,4,13,62568
1362592675,5806,1016.3800048828125000,48.9318389892578100,674.6259155273438000,4.1452660560607910,53.8769302368164060,53,100,88,83,80,14832,2147757769,2147419355,2148009417,2147872969,2147642898,2147056018,2148256420,2147199040,2613,4,13,62506
1362596275,5808,1014.5100097656250000,48.5217590332031250,675.4865112304688000,4.1167888641357420,53.9408111572265600,52,97,85,79,80,14830,2147759131,2147421074,2148011373,2147876041,2147642989,2147055689,2148261147,2147196973,151,4,13,14441
1362599875,5812,1013.8300170898438000,48.3535881042480500,674.3198852539062000,4.1553897857666020,53.9548110961914060,53,98,86,79,79,14828,2147755382,2147421888,2148010176,2147873334,2147640877,2147055433,2148256658,2147195977,578,4,13,52722
1362600656,5804,1012.7700195312500000,48.1388893127441400,674.2474975585938000,4.1577849388122560,53.9842109680175800,53,96,84,79,81,14847,2147755712,2147419529,2148012452,2147875574,2147643072,2147054738,2148258651,2147197056,639,4,13,46712
